Regional Weather Roundup
Issued by NWS Kansas City/Pleasant Hill, MO

Home | Current Version | Previous Version | Graphics & Text | Print | Product List | Glossary Off
Versions: 1 2 3 4 5 6 7 8 9 10 11 12 13 14 15 16 17 18 19 20 21 22 23 24 25 26 27 28 29 30 31 32 33 34 35 36 37 38 39 40 41 42 43 44 45 46 47 48 49 50

427
ASUS43 KEAX 060510
RWREAX

WEATHER ROUNDUP FOR EASTERN KANSAS AND NORTHWEST MISSOURI
NATIONAL WEATHER SERVICE KANSAS CITY/PLEASANT HILL MO
1100 PM CST FRI FEB 05 2016

KSZ040-057-103>105-MOZ028-029-037-043-060600-
...KANSAS CITY METROPOLITAN AREA...

CITY           SKY/WX    TMP DP  RH WIND       PRES   REMARKS
K.C. INTL      CLOUDY    34  25  69 S5        30.27S WCI  30
K.C. DOWNTOWN  CLOUDY    37  26  64 E6        30.28S WCI  32
LEES SUMMIT    CLOUDY    37  24  59 CALM      30.27F
OLATHE - IXD   CLOUDY    36  25  64 SE5       30.27S WCI  32
OLATHE - OJC   CLOUDY    36  25  64 S3        30.27S
LAWRENCE       CLOUDY    32  26  78 CALM      30.28S

$$

MOZ001>008-011>017-020>025-030>033-038>040-044>046-053-054-060600-
...NORTHERN AND CENTRAL MISSOURI...

CITY           SKY/WX    TMP DP  RH WIND       PRES   REMARKS
ST. JOSEPH     CLOUDY    32  24  72 S5        30.27F WCI  27
MOSBY            N/A     32  28  86 CALM      30.28F
WARRENSBURG    CLOUDY    36  23  60 SE3       30.28F
WHITEMAN AFB   CLOUDY    35  24  64 SE3       30.27S
CLINTON          N/A     37  27  65 SE6       30.29S WCI  33
SEDALIA        CLOUDY    35  23  61 SE3       30.30S
WARSAW         NOT AVBL
CHILLICOTHE      N/A     28  23  81 CALM      30.30S
KIRKSVILLE     CLOUDY    31  22  69 S6        30.29F WCI  25

$$

MOZ041-047>049-056>058-063>065-088>090-097-060600-
...EASTERN AND SOUTHERN MISSOURI...

CITY           SKY/WX    TMP DP  RH WIND       PRES   REMARKS
ST. LOUIS INTL PTCLDY    31  18  58 SE3       30.33F
SPIRIT OF STL  CLEAR     26  21  81 CALM      30.33S
COLUMBIA       CLOUDY    32  19  58 E7        30.29F WCI  26
JEFFERSON CITY CLOUDY    31  21  66 SE3       30.31F
ROLLA          CLOUDY    36  18  48 SE10      30.28F WCI  28
OSAGE BEACH    PTCLDY    34  18  51 CALM      30.30S
SPRINGFIELD    CLOUDY    36  20  52 S8        30.28S WCI  30
BRANSON        MOCLDY    37  12  35 CALM      30.31S
JOPLIN         CLOUDY    43  18  36 S9        30.29S
WEST PLAINS    PTCLDY    38  14  37 SW6       30.31S WCI  33

$$

IAZ060-094-KSZ022-034>040-054-083-096-NEZ052-066-093-060600-
...KANSAS...SOUTHEAST NEBRASKA AND IOWA...

CITY           SKY/WX    TMP DP  RH WIND       PRES   REMARKS
TOPEKA         CLOUDY    32  25  75 CALM      30.27F
MANHATTAN      PTCLDY    28  23  81 SW3       30.27S
EMPORIA        CLOUDY    34  21  59 W6        30.25S WCI  29
CHANUTE        CLOUDY    39  26  59 S8        30.26S WCI  33
WICHITA        MOCLDY    36  24  62 NW6       30.27S WCI  31
OMAHA          MOCLDY    27  26  96 SE7       30.24F FOG     WCI  19
LINCOLN        CLOUDY    30  28  92 CALM      30.27R
FALLS CITY     CLEAR     31  25  78 CALM      30.26S
LAMONI         PTCLDY    27  23  85 S6        30.25S WCI  20
DES MOINES     CLOUDY    30  25  81 S8        30.25F WCI  22

$$





USA.gov is the U.S. government's official web portal to all federal, state and local government web resources and services.